Tracking 20712 objects as of 30-May-2020
HD Live streaming from Space Station
objects crossing your sky now

BREEZE-M DEB

Track BREEZE-M DEB now!


NORAD ID: 43414
Int'l Code: 2014-007D
Perigee: 8,171.9 km
Apogee: 34,272.6 km
Inclination: 12.8 °
Period: 760.3 minutes
Semi major axis: 27593 km
RCS: Unknown
Launch date: February 14, 2014
Source: Commonwealth of Independent States (former USSR) (CIS)
Launch site: TYURATAM MISSILE AND SPACE COMPLEX (TTMTR)

Note: This is SATELLITE DEBRIS
aabbcc
Your satellite tracking list
Your tracking list is empty




NASA's NSSDC Master Catalog

Two Line Element Set (TLE):
1 43414U 14007D   20149.59273991 -.00000023  00000-0  00000+0 0  9994
2 43414  12.8107 252.0796 4729557  68.3704 334.6399  1.89408099 38876
Source of the keplerian elements: AFSPC